SCP
0 1 1 1 0 0 0 0 0 0 0 1 1 1 1 1 1 2 2 2 2 2 2 2 2 1 1 0 0 0 0 0 0 0 0 0 0 0 0 0 0 0 0
0 0 1 1 0 0 0 0 0 0 0 0 1 1 1 1 1 2 2 2 2 2 2 2 1 1 1 0 0 0 0 0 0 0 0 0 0 0 0 0 0 0 0
0 0 1 1 0 0 0 0 0 0 0 0 0 1 1 1 1 2 2 2 2 2 1 1 1 1 1 0 0 0 0 0 0 0 0 0 0 0 0 0 0 0 0
0 0 1 1 0 0 0 0 0 0 0 0 0 1 1 1 1 2 2 2 2 1 1 1 1 1 0 0 0 0 0 0 0 0 0 0 0 0 0 0 0 0 0
1 0 0 0 0 0 0 0 0 0 0 0 0 1 1 1 1 1 1 1 1 1 1 1 0 0 0 0 1 0 0 0 0 0 0 0 0 0 0 0 0 0 0
1 1 0 0 0 0 0 0 0 0 0 0 1 1 1 1 1 1 1 1 1 1 0 1 1 0 0 1 1 1 0 0 0 0 0 0 0 0 0 0 0 0 0
1 1 0 0 0 0 0 0 1 1 1 1 1 1 1 1 1 1 0 0 1 1 1 1 1 0 0 1 1 1 1 0 0 0 0 0 0 0 0 0 0 0 0
1 1 1 1 1 0 0 1 1 0 0 1 1 1 1 1 1 1 1 1 1 1 1 1 0 0 0 1 1 1 1 0 0 0 0 0 0 0 0 0 0 0 0
1 1 1 1 1 0 0 0 0 0 0 0 1 1 1 1 1 1 1 1 0 0 0 0 0 0 0 1 1 1 1 1 0 0 0 0 0 0 0 0 0 0 0
1 1 1 1 0 0 0 0 0 0 0 0 1 1 1 0 0 0 0 0 0 0 0 0 0 0 0 1 1 1 1 1 0 0 0 0 0 0 0 0 0 0 0
1 1 1 1 1 0 0 0 0 0 0 0 0 0 0 0 0 0 0 0 0 0 0 0 0 0 0 0 1 1 1 0 0 0 0 0 0 0 0 0 0 0 0
1 1 1 1 1 1 1 1 1 1 1 0 0 0 0 0 0 0 1 0 0 0 0 0 0 0 0 1 1 1 0 0 0 0 0 0 0 0 0 0 0 0 0
1 1 1 1 1 1 1 1 1 1 1 1 1 1 1 1 1 1 1 1 0 0 0 0 0 0 0 0 0 0 0 0 0 0 0 0 1 0 0 0 0 0 0
1 2 2 2 1 1 1 1 1 1 1 1 1 1 1 1 1 1 1 1 1 1 0 1 0 0 0 0 0 0 0 0 0 0 0 0 1 1 1 0 0 1 1
2 2 3 3 2 2 2 2 1 1 1 1 1 1 1 1 1 1 1 1 1 1 1 0 0 0 0 0 0 0 0 0 1 0 0 0 1 1 1 1 1 1 1
2 3 4 4 3 2 2 2 1 1 1 1 2 1 1 1 1 1 1 1 1 1 1 1 1 1 1 1 1 1 0 0 0 1 1 0 0 0 1 1 1 0 0
3 3 4 4 3 3 2 2 1 1 1 2 2 2 2 1 2 2 1 1 1 1 1 1 1 1 1 1 1 1 1 1 1 1 1 1 0 0 0 0 0 0 0
4 4 5 5 4 4 3 2 1 1 1 2 3 3 3 2 2 2 1 1 1 1 1 1 1 1 1 1 1 1 1 1 1 1 1 1 1 0 0 1 1 1 1
5 6 6 5 5 4 4 3 2 1 2 2 2 3 4 4 3 2 2 1 1 2 2 1 1 1 1 1 1 1 1 1 1 1 1 1 1 1 1 1 1 1 1
6 6 6 6 5 4 4 3 2 2 2 2 2 3 4 5 5 4 3 2 2 2 2 2 2 2 1 1 1 1 1 1 1 1 1 1 1 1 1 1 1 1 1
6 6 6 5 5 5 4 4 3 3 2 3 3 4 5 6 7 6 4 4 3 3 3 2 2 2 2 1 1 1 1 1 1 1 1 1 1 1 1 1 1 1 1
7 6 6 5 5 5 5 4 4 4 3 4 5 5 6 7 8 7 6 5 5 4 4 3 4 3 2 2 2 1 1 1 1 1 1 1 1 1 1 1 2 2 2
7 6 6 6 6 6 6 5 5 4 4 5 7 8 7 7 7 8 8 7 6 5 5 5 5 4 3 3 2 2 1 1 1 1 2 2 2 2 1 1 2 3 3
6 6 7 8 8 7 6 5 5 5 6 7 9 9 8 7 7 7 7 7 6 5 5 5 5 4 4 3 2 2 2 2 2 1 1 2 2 2 2 2 2 2 3
6 6 9 11 10 8 6 5 5 6 6 7 8 7 7 7 6 6 6 6 6 5 5 4 4 4 3 3 2 2 2 2 2 2 1 1 1 1 2 2 2 2 2
6 6 9 12 12 9 7 5 5 6 6 6 6 6 6 6 6 5 5 5 5 5 4 4 3 3 3 3 3 2 2 2 2 2 1 1 1 1 2 2 2 2 2
Wind_Speed
13 13 13 14 15 16 16 17 17 17 18 18 18 18 19 19 19 19 19 19 19 18 18 17 17 17 16 16 16 16 16 16 16 17 17 16 15 13 13 14 14 11 14
16 14 14 14 15 15 16 17 17 17 17 17 18 18 18 18 18 18 18 18 18 18 17 17 17 16 16 15 15 15 14 14 15 16 17 15 14 13 12 13 14 10 14
17 15 14 14 15 15 16 16 16 17 17 17 17 17 17 17 18 18 18 17 17 17 17 16 16 16 15 14 13 12 12 12 12 13 12 10 12 14 15 16 15 14 13
17 14 14 15 15 15 15 15 16 16 16 16 16 16 17 17 17 17 17 17 17 17 16 16 16 15 14 13 11 9 9 9 9 8 6 9 10 14 15 15 14 14 13
17 16 15 15 15 15 15 14 15 15 16 16 15 16 16 16 16 17 16 16 16 15 15 15 15 14 12 11 8 6 5 5 5 7 9 9 8 12 13 13 13 13 13
18 16 15 15 15 15 15 14 15 15 15 15 15 15 15 16 16 16 16 16 15 14 14 14 14 12 11 9 6 5 3 2 3 7 9 9 8 11 13 13 13 12 12
18 16 15 15 15 15 14 14 15 15 15 14 15 14 15 15 15 15 15 14 14 13 13 13 12 11 9 7 4 3 3 3 4 8 9 9 8 11 12 12 12 12 12
18 17 14 15 15 14 14 14 14 14 14 14 14 14 14 14 15 14 14 14 13 13 13 12 11 10 8 5 3 3 3 3 8 11 11 9 10 11 11 11 11 11 12
17 16 14 13 13 13 13 13 13 13 13 13 13 13 14 14 14 14 13 13 12 12 12 11 10 9 7 4 2 4 4 5 4 7 11 8 10 11 11 11 10 11 11
14 14 14 13 12 11 11 12 12 12 12 11 11 11 12 13 13 13 12 11 11 11 10 10 9 8 5 2 1 4 5 4 5 9 8 8 11 11 11 10 10 11 11
12 11 13 13 11 11 12 12 11 11 10 10 9 9 8 7 9 8 12 11 10 10 9 9 8 7 5 3 3 4 4 0 7 7 7 10 11 11 10 10 10 10 10
11 10 10 10 10 10 10 9 7 7 7 5 5 6 4 3 5 9 11 10 9 8 8 7 7 6 5 3 4 5 2 2 7 7 7 11 10 10 10 9 9 9 9
10 10 10 8 5 8 7 7 4 4 5 4 5 5 4 4 5 6 5 6 6 7 5 6 6 5 4 2 2 2 1 3 5 7 8 10 10 10 9 8 8 8 8
9 9 10 9 4 4 5 5 5 5 4 4 5 4 4 2 2 3 2 4 4 3 3 3 2 1 1 1 1 1 2 3 5 6 6 10 9 9 9 8 8 8 7
8 9 9 7 6 4 3 2 4 4 5 5 4 3 3 3 3 3 1 1 1 2 2 1 1 2 2 1 2 3 3 4 5 7 6 10 9 8 8 8 8 8 8
10 10 9 8 7 4 3 1 2 3 3 4 4 4 3 2 3 3 2 1 1 2 2 2 2 2 1 1 1 2 2 3 3 7 7 7 9 9 8 9 8 8 8
10 10 9 8 8 5 4 3 2 3 4 4 4 4 3 3 3 2 2 1 1 2 2 1 1 1 2 2 2 1 1 2 2 5 7 6 6 8 9 9 9 9 9
10 10 9 9 10 6 4 3 2 2 3 4 4 4 3 3 2 2 1 1 2 2 2 1 1 1 1 1 1 1 2 2 2 3 5 6 6 6 8 11 10 10 10
10 10 8 7 10 8 6 4 2 2 2 3 4 4 4 3 3 1 1 1 1 1 1 1 1 1 1 1 1 2 2 3 3 4 4 5 6 6 6 9 11 11 11
11 10 8 7 8 8 6 3 2 3 2 2 3 4 5 4 3 2 2 2 1 1 1 1 0 1 1 2 3 1 2 3 3 3 4 4 5 7 7 8 7 8 12
12 11 10 8 7 6 5 5 4 4 3 3 4 5 5 4 4 2 1 2 1 1 1 2 1 2 2 2 1 1 2 3 4 3 3 3 5 5 6 8 7 6 7
13 12 10 9 9 8 5 4 4 4 4 3 3 4 5 4 4 4 3 2 2 2 2 2 1 2 2 1 1 1 1 1 2 5 4 4 4 4 6 8 7 7 6
14 14 12 11 10 9 8 5 4 3 2 3 4 4 4 5 4 3 4 3 2 3 3 3 3 3 2 2 2 1 1 1 1 2 4 3 3 3 4 5 7 7 7
15 14 11 11 10 9 8 7 7 6 5 5 4 4 4 5 4 4 4 3 3 2 2 4 4 3 3 3 2 2 2 1 1 1 2 2 4 4 4 4 5 6 7
15 14 12 11 10 10 9 8 7 6 5 4 4 5 4 4 4 5 5 4 3 3 3 3 1 3 2 3 2 2 2 2 3 2 2 2 3 3 4 4 4 4 6
14 14 14 12 11 10 10 9 8 7 5 5 4 5 5 4 4 6 5 4 4 4 3 3 3 4 3 3 3 2 2 2 2 2 3 3 3 3 4 4 4 5 5
Wind_Direction
96 93 90 85 87 88 87 86 87 87 87 88 88 88 90 91 93 94 94 95 95 94 93 91 90 90 90 91 92 93 94 95 97 98 96 94 95 97 102 106 106 102 107
104 100 94 90 89 89 89 89 89 89 90 90 89 89 90 91 92 94 94 94 94 93 93 92 92 91 92 94 95 96 98 102 105 106 103 96 93 94 95 96 97 104 107
108 107 100 94 92 91 91 91 92 92 91 90 91 91 92 92 92 94 94 94 95 95 95 93 94 94 95 97 98 100 102 107 114 119 114 101 93 90 93 96 101 105 105
112 108 101 99 96 94 93 94 94 94 93 92 92 92 93 94 93 95 95 95 95 96 96 96 96 96 96 98 99 100 104 113 124 125 105 96 94 94 96 99 103 105 105
108 104 103 102 99 97 95 95 97 96 95 94 94 94 94 94 94 94 94 94 94 95 95 96 96 96 96 96 94 91 94 108 120 104 95 92 91 98 99 102 104 105 105
111 108 107 105 102 100 97 97 100 98 97 97 96 96 97 96 96 95 95 96 97 97 97 98 97 96 96 92 84 72 64 59 83 97 98 98 97 102 103 104 105 106 106
113 113 113 109 106 102 100 99 102 100 99 98 98 98 99 99 99 98 98 98 99 100 99 98 97 96 94 88 70 35 16 14 96 94 93 94 98 104 105 105 107 108 108
116 115 116 113 110 106 104 102 103 102 101 102 102 101 101 102 102 102 101 100 99 100 100 100 99 98 96 86 46 8 6 24 95 101 98 97 102 104 106 105 106 109 112
120 124 128 125 118 113 109 108 107 106 105 106 106 107 107 107 107 105 103 103 101 102 104 105 106 107 105 94 31 349 349 16 83 104 104 104 107 107 107 107 106 111 116
123 131 133 134 133 131 123 118 115 114 114 115 116 117 118 117 116 115 111 107 107 108 110 114 118 121 124 130 307 319 332 347 99 95 99 111 113 112 111 111 111 114 118
127 132 134 137 147 142 134 131 131 127 128 131 131 133 139 139 131 128 113 118 118 120 124 128 134 142 157 189 242 284 304 227 95 93 97 117 120 118 118 116 117 118 121
135 138 134 140 151 145 136 140 152 146 149 159 141 154 165 128 118 118 126 132 136 139 145 151 159 174 200 198 214 238 261 109 103 103 111 124 124 124 124 123 122 124 127
142 144 134 135 140 137 133 152 148 137 146 153 141 145 140 132 133 130 146 148 159 167 174 167 189 206 202 191 173 179 131 85 99 105 123 129 130 131 132 133 132 133 135
154 143 132 132 120 109 126 136 145 144 152 146 146 160 141 140 135 133 152 166 169 167 165 166 195 149 124 105 96 110 95 90 101 111 131 138 139 141 143 144 144 144 144
149 139 127 131 122 104 91 130 142 136 139 132 140 138 132 134 119 112 106 110 133 129 146 142 105 85 76 70 59 62 70 93 116 124 135 150 149 153 157 157 158 157 158
158 146 133 137 128 121 119 100 99 118 120 131 130 122 124 112 114 118 117 67 71 80 83 102 118 123 111 81 80 84 92 89 109 130 144 156 163 166 169 171 172 170 172
158 145 141 145 141 149 158 175 153 147 140 126 118 127 140 129 128 135 128 137 127 110 106 103 122 151 166 158 134 123 107 106 118 133 150 160 169 180 183 184 184 185 186
153 147 156 162 151 158 166 182 183 154 135 135 136 138 138 129 140 145 143 152 147 153 150 149 202 191 155 161 164 191 146 157 168 168 162 167 169 176 188 193 190 193 197
153 151 160 160 154 163 167 174 193 132 126 140 136 138 144 147 157 150 127 121 184 170 152 192 131 225 198 185 201 196 189 179 193 197 176 174 173 169 173 190 195 197 202
156 155 161 165 157 161 163 174 193 173 166 154 137 145 151 163 171 167 172 181 214 144 119 88 77 286 275 243 251 203 202 180 206 196 199 189 183 183 179 178 187 202 208
161 162 166 171 162 164 170 179 185 185 184 172 166 156 161 171 171 189 171 167 196 179 166 191 215 233 252 254 276 262 243 215 208 192 210 207 195 189 178 177 185 190 196
167 168 170 174 172 179 177 184 185 181 183 178 158 156 172 172 178 191 183 199 179 185 195 208 225 254 256 231 229 277 274 287 256 219 199 211 207 189 186 191 192 187 187
174 175 179 180 175 184 177 181 188 170 188 171 167 171 185 183 191 206 182 205 195 199 190 207 216 234 257 258 230 218 226 240 269 268 223 205 194 195 197 194 189 189 193
178 178 178 176 176 181 183 187 186 182 194 190 178 173 184 189 193 202 199 199 213 228 194 214 205 220 237 261 251 227 231 233 224 280 294 242 212 209 216 216 204 190 195
181 178 178 175 177 179 189 194 196 196 194 180 173 168 181 189 202 208 203 201 208 226 224 225 203 236 236 242 253 240 238 240 235 219 252 260 242 220 212 213 215 203 194
181 180 177 175 178 180 190 194 199 207 196 185 183 175 189 190 203 211 208 197 207 220 221 217 218 239 245 254 261 261 241 234 237 236 245 249 241 234 215 209 213 211 199